Regional Weather Roundup
Issued by NWS

Home | Current Version | Previous Version | Text Only | Print | Product List | Glossary On
Versions: 1 2 3 4 5 6 7 8 9 10 11 12 13 14 15 16 17 18 19 20 21 22 23 24 25 26 27 28 29 30 31 32 33 34 35 36 37 38 39 40 41 42 43 44 45 46 47 48 49 50
000
ASUS44 KBMX 051010
RWRAL

ALABAMA REGIONAL WEATHER ROUNDUP
NATIONAL WEATHER SERVICE BIRMINGHAM AL
500 AM CDT SAT SEP 05 2015

NOTE: "FAIR" INDICATES FEW OR NO CLOUDS BELOW 12,000 FEET
WITH NO SIGNIFICANT WEATHER AND/OR OBSTRUCTIONS TO VISIBILITY.

THE REMARK "TC" DENOTES TEMPERATURE IN DEGREES CELSIUS.

ALZ001>011-014-016>018-020-051100-
NORTH ALABAMA

CITY           SKY/WX    TMP DP  RH WIND       PRES   REMARKS
MUSCLE SHOALS  FOG       68  66  93 CALM      30.04S VSB 1/2
HUNTSVILLE     CLEAR     71  68  90 CALM      30.04R
DECATUR          N/A     67  67 100 CALM      30.04R FOG
HALEYVILLE     FAIR      67  67 100 CALM      30.07R FOG
GADSDEN        CLEAR     70  64  83 CALM      30.03R
$$

ALZ012-013-022-023-030>036-040>044-051100-
WEST CENTRAL ALABAMA

CITY           SKY/WX    TMP DP  RH WIND       PRES   REMARKS
TUSCALOOSA     CLEAR     73  71  93 CALM      30.00R FOG
$$

ALZ015-024>027-033>036-040>044-051100-
CENTRAL ALABAMA

CITY           SKY/WX    TMP DP  RH WIND       PRES   REMARKS
BIRMINGHAM     CLEAR     78  69  73 E6        30.04R
MONTGOMERY     CLEAR     74  71  91 CALM      29.99R FOG
SHELBY CO ARPT CLEAR     74  71  91 CALM      30.02R
MAXWELL AFB    CLEAR     74  73  95 N2        29.98R
GREENVILLE     NOT AVBL
$$

ALZ019-021-028-029-037-038-045>048-051100-
EAST CENTRAL ALABAMA

CITY           SKY/WX    TMP DP  RH WIND       PRES   REMARKS
ANNISTON       CLEAR     72  68  87 NE3       30.04R
ALEXANDER CITY CLEAR     74  72  91 CALM      30.03R
AUBURN         CLEAR     74  71  91 NE3       30.03R
$$

ALZ051>064-051100-
SOUTHWEST ALABAMA

CITY           SKY/WX    TMP DP  RH WIND       PRES   REMARKS
MOBILE         PTCLDY    74  74 100 NW3       30.00R
BROOKLEY FIELD PTCLDY    77  75  93 W3        30.00R
EVERGREEN      CLEAR     71  71 100 CALM      30.00R FOG
$$

ALZ049-050-065>069-051100-
SOUTHEAST ALABAMA

CITY           SKY/WX    TMP DP  RH WIND       PRES   REMARKS
DOTHAN         CLEAR     73  72  96 SW3       30.02R
OZARK          MOCLDY    73  73  98 CALM      29.98R
TROY           CLEAR     71  70  96 CALM      30.00R FOG
EUFAULA        FAIR      71  70  96 CALM      29.99R FOG
$$


USA.gov is the U.S. government's official web portal to all federal, state and local government web resources and services.